Location: Saratoga Springs
(43.0831°N, 73.7850°W)
Time: 16:08:11
(UTC-04:00)

Vanguard 1 Rocket - Pass Details

Date: 13 April 2024
Orbit: 651 x 4220 km, 34.3° (Epoch: 20 May)

Event Time Altitude Azimuth Distance (km) Brightness Sun altitude
Rises 04:59:12 0° 273° (W) 6,658 - -13.9°
Reaches altitude 10° 05:05:44 10° 256° (WSW) 6,255 - -12.8°
Exits shadow 05:09:05 14° 246° (WSW) 6,191 10.9 -12.3°
Maximum altitude 05:17:00 17° 223° (SW) 6,378 11.1 -11.0°
Drops below altitude 10° 05:30:22 10° 191° (S) 7,405 11.7 -8.7°
Sets 05:39:55 0° 174° (S) 8,371 12.2 -7.1°
